sat.trackr.live / text

‹ back to catalog

HISPASAT 36W-1

NORAD 41942 · 2017-006A

PAYLOAD ACTIVE UNKNOWN

§ Identity

Operator
Country
SPN
Launch date
2017-01-28
Launch site
FRGUI
Launch vehicle
Mass (kg)
RCS (m²)
3.16

Purposes: comms

External: N2YO · Heavens-Above · Gunter

§ Orbital elements

Epoch: 2026-05-25T03:34:17.062176Z

Period
1,436.08 min
Inclination
0.0045°
Eccentricity
0.0000970
Mean motion
1.00273011 rev/d
Perigee alt
35,782.2 km
Apogee alt
35,790.3 km
Semi-major
42,164.4 km
B*
0.0000e+0
RAAN
262.1405°
Arg perigee
158.4384°
Mean anomaly
199.7391°
Rev number
3,401

§ Raw data

HISPASAT 36W-11 41942U 17006A   26145.14880859 -.00000247  00000+0  00000+0 0  99972 41942   0.0045 262.1405 0000970 158.4384 199.7391  1.00273011 34012

JSON: /api/v1/satellites/41942 · /tle

For live sub-satellite position, see the globe view (requires WebGL).

§ Visibility from observer

Set your observer location to see the next 7 days of passes ≥ 10°. The values pass through the URL so the page stays shareable.

No JS? Fill the form by hand. The geolocation button needs JavaScript.